Powrót do katalogu

STARLINK-37744

AktywnyŁącznośćSSO
NORAD 69347·PAYLOAD·🇺🇸 United States

Wystrzelony Jun 3, 2026 z Vandenberg Space Force Base

Loading…

Następne Przeloty (najbliższe 24 godziny)

TLE

ŚwieżeSource: CelesTrak SupGP

Epoka: Sep 14, 2026, 23:07 UTC

1 69347C 26122U   26257.96368056  .00037178  00000+0  11542-2 0  2574
2 69347  97.2826 286.6998 0001019  93.6161 254.4669 15.33418641    13

Śledź STARLINK-37744 w czasie rzeczywistym z AllMySat

Download on the App Store